ALOUETTE 1 (S-27) 1 00424U 62049A 10210.55438782 .00000058 00000-0 56660-4 0 4453 2 00424 080.4643 232.6151 0024642 077.2085 283.1812 13.68740786387423 IUE 1 10637U 78012A 10208.76973581 -.00000253 +00000-0 +10000-3 0 06220 2 10637 043.4019 009.9750 1518172 160.8107 205.6705 01.00079478071513 IRAS 1 13777U 83004A 10211.55687902 .00000085 00000-0 87350-4 0 2596 2 13777 099.0547 045.8441 0024140 162.5051 197.6951 14.00112031 74741 EXOS D (AKEBONO) 1 19822U 89016A 10210.72999231 +.00020694 +26020-6 +64515-3 0 05876 2 19822 075.0950 289.2930 2659376 208.4934 134.1173 10.08364438636340 INTERCOSMOS 24 1 20261U 89080A 10210.51666216 .00000216 00000-0 55362-4 0 2248 2 20261 082.5861 196.2146 1216258 124.5251 247.6809 12.53500362950611 COBE 1 20322U 89089A 10211.65110698 .00000260 00000-0 19091-3 0 2516 2 20322 098.9971 215.0328 0009285 068.6189 291.5952 14.04399656 60508 HST 1 20580U 90037B 10211.73259046 .00000454 00000-0 21880-4 0 6123 2 20580 028.4699 315.5786 0003215 301.9264 058.1026 15.01005622911304 ROSAT 1 20638U 90049A 10210.54667473 +.00010662 +00000-0 +10928-3 0 00536 2 20638 052.9927 242.2470 0002059 161.3044 198.8042 15.65611877123488 CRRES 1 20712U 90065A 10210.24882221 .00000297 00000-0 24933-3 0 1012 2 20712 017.8827 266.5440 7141943 016.7030 358.1617 02.42887827166989 SARA 1 21578U 91050E 10210.76002876 +.00000120 +00000-0 +41801-4 0 08954 2 21578 098.2767 178.9197 0003124 026.9176 333.2172 14.50589404003506 UARS 1 21701U 91063B 10210.90939479 +.00011073 +00000-0 +11936-3 0 00541 2 21701 056.9695 008.4741 0055833 250.8305 108.6722 15.62400341042776 SAMPEX 1 22012U 92038A 10210.54866576 +.00002722 +00000-0 +62336-4 0 02664 2 22012 081.6342 198.4148 0041251 280.2446 079.4148 15.41418372997102 ORBVIEW 1 (MICROLAB) 1 23547U 95017C 10210.77634178 +.00000078 +00000-0 +32604-4 0 03257 2 23547 069.9829 324.4129 0010477 029.2663 330.9065 14.55630086811923 XTE 1 23757U 95074A 10210.80881932 .00002128 00000-0 58669-4 0 1793 2 23757 022.9824 008.9789 0008364 059.7527 300.3824 15.28160282808180 FAST 1 24285U 96049A 10210.59991139 +.00001763 +00000-0 +14924-3 0 09326 2 24285 082.9621 213.6983 1995179 111.9600 270.4771 11.27276061564413 TRACE 1 25280U 98020A 10210.65113659 +.00000414 +00000-0 +38850-4 0 05966 2 25280 097.6429 058.1343 0021416 326.6678 033.3195 14.99081870672097 SAFIR 2 1 25399U 98043F 10210.60521743 -.00000130 +00000-0 -39159-4 0 06897 2 25399 098.3037 223.4918 0002799 078.3870 281.7620 14.23967957626338 SWAS 1 25560U 98071A 10210.69001246 +.00000190 +00000-0 +30635-4 0 03125 2 25560 069.9010 071.1106 0009506 338.7115 021.3616 14.87047832630944 ASTRID 2 1 25568U 98072B 10210.56122797 +.00000092 +00000-0 +85056-4 0 04348 2 25568 082.9442 039.4461 0025873 008.3288 351.8292 13.72027424582522 ORSTED 1 25635U 99008B 10210.82780385 +.00000050 +00000-0 +20534-4 0 09771 2 25635 096.4842 310.5349 0142742 334.1629 025.2497 14.45895434602643 SUNSAT 1 25636U 99008C 10210.71948095 -.00000001 +00000-0 +79036-5 0 06703 2 25636 096.4867 302.4117 0148630 012.1817 348.2918 14.43508760601891 WIRE 1 25646U 99011A 10210.82909717 +.00019230 +00000-0 +18752-3 0 02051 2 25646 097.2554 130.4734 0006950 057.6970 302.5083 15.66235528638666 ABRIXAS 1 25721U 99022A 10210.83925279 .00001070 00000-0 61839-4 0 9010 2 25721 048.4367 055.3808 0019894 259.9921 099.8777 15.20823528622494 TERRIERS 1 25735U 99026A 10210.71543826 +.00000611 +00000-0 +27716-4 0 00657 2 25735 097.1632 072.3220 0008524 060.8070 299.4019 15.24333420620951 FUSE 1 1 25791U 99035A 10210.71186010 .00000192 00000-0 35538-5 0 7582 2 25791 024.9860 349.5863 0010508 235.8975 124.0529 14.41829016585272 CXO 1 25867U 99040B 10208.78735174 .00000000 00000-0 10000-3 0 4958 2 25867 067.3752 051.3863 8224117 275.3383 006.8230 00.37813764 6545 CLEMENTINE 1 25978U 99064B 10210.74179810 +.00000570 +00000-0 +72237-4 0 00190 2 25978 098.1140 298.4473 0009522 239.0169 121.0133 14.85704207576424 XMM 1 25989U 99066A 10211.87500000 +.00000274 +00000-0 +10000-3 0 08927 2 25989 060.7351 092.5025 6096266 105.3503 002.2026 00.50124232008281 TERRA 1 25994U 99068A 10211.76260706 .00000068 00000-0 25167-4 0 125 2 25994 098.2026 285.7376 0000977 111.7805 248.3484 14.57122448564659 ACRIMSAT 1 26033U 99070B 10210.70523900 -.00000014 +00000-0 +63772-5 0 00143 2 26033 097.9205 082.2288 0028710 358.7253 001.3868 14.60614032565031 IMAGE 1 26113U 00017A 10207.94421608 .00000338 00000-0 10000-3 0 9690 2 26113 091.6420 216.5752 7315401 239.4292 030.1223 01.68639841 63643 DELTA 2 R/B(2) 1 26115U 00017C 10210.14691378 -.00000079 00000-0 10000-3 0 8097 2 26115 091.6387 216.6831 7315020 240.3164 029.4249 01.68200951 63524 CLUSTER II-FM6 1 26410U 00041A 10211.87500000 +.00002317 +00000-0 +00000-0 0 05307 2 26410 129.2080 218.3402 8871381 047.7169 002.5661 00.44173222006378 CLUSTER II-FM7 1 26411U 00041B 10211.83333333 +.00002309 +00000-0 +00000-0 0 05364 2 26411 129.1875 218.3073 8867377 047.7316 357.5119 00.44211919006454 CLUSTER II-FM5 1 26463U 00045A 10211.83333333 +.00002060 +00000-0 +00000-0 0 05224 2 26463 130.8186 218.4012 8721371 046.1360 356.4446 00.44185250006958 CLUSTER II-FM8 1 26464U 00045B 10211.85199093 .00000000 00000-0 10000-3 0 5181 2 26464 122.3107 205.1531 8955536 036.9618 358.2072 00.44188913 6349 MEGSAT 1 1 26546U 00057B 10210.61580431 +.00000024 +00000-0 +20662-4 0 00411 2 26546 064.5574 247.7654 0027611 217.4629 142.4570 14.84384792532653 HETE 2 1 26561U 00061A 10209.30396301 .00001033 00000-0 19207-4 0 5653 2 26561 001.9496 096.4164 0023727 242.6822 117.2299 14.96306450536034 MUNIN 1 26621U 00075C 10210.51780863 -.00000656 +00000-0 -58694-3 0 08893 2 26621 095.4024 030.0662 0717459 068.0973 299.4830 13.03713178460780 ODIN 1 26702U 01007A 10210.67473425 +.00001107 +00000-0 +10383-3 0 00726 2 26702 097.6871 229.1848 0004004 164.3447 195.7898 14.95970006514376 TIMED 1 26998U 01055B 10210.68756939 +.00000137 +00000-0 +20727-4 0 06385 2 26998 074.0729 264.0474 0002254 262.0498 098.0416 14.84191832467978 HESSI 1 27370U 02004A 10210.58015856 +.00000562 +00000-0 +49352-4 0 03788 2 27370 038.0389 278.9061 0014890 214.7848 145.1941 15.02589287465020 USERS (SERVICE MODULE) (Decayed 2007-06-15) 1 27515U 02042A 07165.28398148 .02788115 -47478-5 58034-3 0 6437 2 27515 030.3988 006.1610 0004722 351.8108 358.0490 16.29812123266589 INTEGRAL 1 27540U 02048A 10211.87500000 +.00000081 +00000-0 +10000-3 0 09529 2 27540 082.4577 337.7247 8733396 255.0645 000.7471 00.33414322005660 FEDSAT 1 27598U 02056B 10210.62936764 +.00000004 +00000-0 +18104-4 0 01401 2 27598 098.3231 249.6382 0010013 109.3714 250.8558 14.28039651397396 WEOS 1 27599U 02056C 10210.66016540 .00000079 00000-0 48077-4 0 1478 2 27599 098.3415 256.4044 0010675 120.3010 239.9238 14.28603365397547 MICRO LABSAT 1 27600U 02056D 10210.73826543 +.00000001 +00000-0 +16593-4 0 01160 2 27600 098.3356 255.9827 0011632 122.9778 237.2526 14.28893972397647 CORIOLIS 1 27640U 03001A 10210.53824181 -.00000001 +00000-0 +20571-4 0 03286 2 27640 098.7527 216.1503 0013859 330.5662 029.4710 14.18380466391409 CHIPSAT 1 27643U 03002B 10210.83908990 -.00000172 +00000-0 -13559-4 0 04485 2 27643 094.0160 158.3637 0014148 093.0845 267.2043 14.97509730411964 SORCE 1 27651U 03004A 10210.49642900 +.00000117 +00000-0 +30007-4 0 02600 2 27651 039.9949 226.5249 0026036 299.1903 060.6292 14.82355803406741 GALEX 1 27783U 03017A 10210.59020068 +.00000231 +00000-0 +25805-4 0 09969 2 27783 028.9982 299.5841 0004145 138.8107 221.2791 14.59839917387364 MOST 1 27843U 03031D 10210.59047145 -.00000023 +00000-0 +96522-5 0 08994 2 27843 098.7181 217.5636 0010862 060.2629 299.9615 14.20142084367005 QUAKESAT 1 27845U 03031F 10210.54459204 +.00000084 +00000-0 +59450-4 0 08819 2 27845 098.7174 218.4222 0010040 068.2712 291.9528 14.20371384366998 AAU CUBESAT 1 27846U 03031G 10210.01837027 +.00000038 +00000-0 +37745-4 0 08020 2 27846 098.7015 219.2399 0010357 032.6028 327.5788 14.21044038367127 SCISAT 1 1 27858U 03036A 10210.76925838 +.00000084 +00000-0 +17649-4 0 00864 2 27858 073.9345 100.5096 0007671 059.5162 300.6756 14.74871641374805 KAISTSAT 4 1 27945U 03042G 10210.72254292 -.00000009 +00000-0 +69386-5 0 00249 2 27945 097.8882 075.4469 0011463 296.9413 063.0611 14.63198709365172 DOUBLESTAR (TC-1) (Decayed 2007-10-14) 1 28140U 03061A 07287.06978781 +.01244379 -22592-5 +10000-3 0 01751 2 28140 018.8616 210.3539 4780782 049.3666 343.3587 06.28920458006227 GP-B 1 28230U 04014A 10210.68904260 +.00000153 +00000-0 +19926-4 0 08521 2 28230 089.9355 155.0393 0003441 095.7556 264.4059 14.76059806337886 DEMETER 1 28368U 04025C 10211.77870616 .00000202 00000-0 41442-4 0 8885 2 28368 097.9610 273.2588 0001411 084.3820 275.7513 14.70195791325754 DOUBLESTAR (TC-2) 1 28382U 04029A 10210.60002522 -.00000713 00000-0 -27298-2 0 4199 2 28382 088.8178 332.0262 7341617 214.8541 061.6713 02.11733495 46264 SWIFT 1 28485U 04047A 10210.54090065 +.00000730 +00000-0 +30527-4 0 06397 2 28485 020.5557 281.7900 0014567 070.8313 289.3728 14.92795620310610 ASTRO E2 1 28773U 05025A 10210.36917016 +.00000382 +00000-0 +23445-4 0 03063 2 28773 031.4043 209.4101 0006492 252.5032 107.4903 15.01112226277439 ASTRO F (AKARI) 1 28939U 06005A 10210.89743253 +.00000064 +00000-0 +24091-4 0 03452 2 28939 098.2536 215.7060 0008466 004.2856 355.8407 14.57640670235480 FORMOSAT 3A 1 29047U 06011A 10210.68286751 +.00000229 +00000-0 +10942-3 0 02891 2 29047 071.9801 271.8332 0051552 164.5761 195.6966 14.27109530225861 FORMOSAT 3B 1 29048U 06011B 10210.84660464 +.00000390 +00000-0 +17471-3 0 03497 2 29048 071.9674 186.4639 0043959 114.7346 245.8367 14.27166664228361 FORMOSAT 3C 1 29049U 06011C 10210.79074083 +.00000361 +00000-0 +16364-3 0 02990 2 29049 072.0225 337.9356 0035493 174.5958 185.5550 14.27178767224134 FORMOSAT 3D 1 29050U 06011D 10210.80442826 .00001102 00000-0 26646-3 0 5832 2 29050 072.0099 118.9142 0052059 026.9040 333.4763 14.54234457230499 FORMOSAT 3E 1 29051U 06011E 10210.61314121 .00000373 00000-0 16522-3 0 3523 2 29051 072.0043 246.6044 0068629 042.0722 318.5647 14.27173625226696 FORMOSAT 3F 1 29052U 06011F 10210.79970759 +.00000360 +00000-0 +16273-3 0 03752 2 29052 072.0371 309.5858 0040596 143.1876 217.2039 14.27189377225026 CLOUDSAT 1 29107U 06016A 10210.89089018 +.00000101 +00000-0 +32366-4 0 03438 2 29107 098.1890 153.6672 0001317 091.4920 268.6459 14.57115995226246 CALIPSO 1 29108U 06016B 10210.89110271 +.00000156 +00000-0 +44591-4 0 03551 2 29108 098.1893 153.7202 0001349 086.6898 273.4470 14.57115811226227 HINODE (SOLAR B) 1 29479U 06041A 10210.56267036 +.00000117 +00000-0 +31942-4 0 02277 2 29479 098.0916 212.1494 0015167 191.6283 168.4554 14.63002162205543 SJ-6C 1 29505U 06046A 10211.62639138 -.00000131 00000-0 -78223-5 0 2234 2 29505 097.6936 212.9601 0003779 136.1942 223.9608 14.90758691204934 SJ-6D 1 29506U 06046B 10211.78829271 -.00000250 00000-0 -20357-4 0 2136 2 29506 097.6975 211.9587 0001779 167.0891 193.0362 14.90057602204864 COROT 1 29678U 06063A 10210.78202471 -.00000083 +00000-0 -66026-4 0 01890 2 29678 089.9935 009.8377 0003876 335.2845 024.8147 13.98135982183068 AIM 1 31304U 07015A 10210.76751294 +.00000663 +00000-0 +70018-4 0 01075 2 31304 097.8092 312.7525 0010859 313.8882 046.1470 14.92538704177582 GLAST 1 33053U 08029A 10210.83374139 +.00000279 +00000-0 +00000-0 0 05562 2 33053 025.5795 117.8839 0014686 132.4729 227.7092 15.05091742117360 KORONAS-FOTON 1 33504U 09003A 10210.89252843 +.00000977 +00000-0 +65706-4 0 06833 2 33504 082.4765 187.7178 0017282 123.1431 268.3406 15.05511895082046 TATIANA 2 1 35868U 09049D 10211.77501653 .00000177 00000-0 10000-3 0 5301 2 35868 098.7559 265.3858 0003439 222.5082 137.5799 14.22114672 44922 UGATUSAT 1 35869U 09049E 10211.66109841 .00000177 00000-0 10000-3 0 5280 2 35869 098.7537 265.1781 0003724 237.2705 122.8090 14.21985709 44909 SUMBANDILA 1 35870U 09049F 10211.68090285 .00000698 00000-0 34549-4 0 9619 2 35870 097.3285 259.6597 0002215 339.1628 176.3057 15.20973722 48069 WISE 1 36119U 09071A 10210.95331945 +.00000509 +00000-0 +32814-4 0 01831 2 36119 097.5091 214.6186 0003929 082.2430 277.9257 15.12639447034360 SDO 1 36395U 10005A 10210.49188973 -.00000039 00000-0 00000+0 0 1191 2 36395 028.0084 186.7412 0003621 290.1242 265.5451 01.00271794 1887 CRYOSAT 2 1 36508U 10013A 10210.80751227 .00000003 00000-0 00000+0 0 1054 2 36508 092.0317 314.0088 0008001 256.3569 103.6756 14.52172066 16284